Regional Weather Roundup
Issued by NWS Glasgow, MT

Home | Current Version | Previous Version | Text Only | Print | Product List | Glossary On
Versions: 1 2 3 4 5 6 7 8 9 10 11 12 13 14 15 16 17 18 19 20 21 22 23 24 25 26 27 28 29 30 31 32 33 34 35 36 37 38 39 40 41 42 43 44 45 46 47 48 49 50
000
ASUS45 KGGW 301215
RWRGGW
HOURLY REGIONAL WEATHER ROUNDUP FOR NORTHEAST MONTANA
NATIONAL WEATHER SERVICE GLASGOW MONTANA
600 AM MDT TUE MAY 30 2017

NOTE: "FAIR" INDICATES FEW OR NO CLOUDS BELOW 12,000 FEET WITH NO
SIGNIFICANT WEATHER AND/OR OBSTRUCTIONS TO VISISBILITY.

NORTHEAST MONTANA


CITY           SKY/WX    TMP DP  RH WIND       PRES   REMARKS
GLASGOW        CLEAR     42  27  55 CALM      30.15R
6HR MIN TEMP:  40; 6HR MAX TEMP:  48;

PLENTYWOOD       N/A     37  30  75 W6          N/A
WOLF POINT     CLEAR     38  29  70 CALM      30.17R
JORDAN           N/A     35  27  72 W3        30.14S
WINNETT          N/A     34  30  86 S1          N/A
SIDNEY         CLEAR     44  30  57 NW5       30.15R
GLENDIVE       CLEAR     47  28  47 N5        30.14R
MALTA            N/A     38  32  79 CALM        N/A
OPHEIM           N/A     41  28  60 N3        30.02R

FORT PECK REPORTS


CITY           SKY/WX    TMP DP  RH WIND       PRES   REMARKS
FORT PECK        N/A     42  27  55 NW5         N/A
THE PINES        N/A     48  35  60 CALM        N/A

SOUTHEAST MONTANA


CITY           SKY/WX    TMP DP  RH WIND       PRES   REMARKS
BILLINGS       PTCLDY    48  36  63 CALM      30.14R
MILES CITY     CLEAR     39  27  62 NW6       30.14R
BAKER          CLEAR     34  27  75 CALM      30.14R
LIVINGSTON     CLEAR     41  38  89 NW3       30.16F

CENTRAL MONTANA


CITY           SKY/WX    TMP DP  RH WIND       PRES   REMARKS
HAVRE          CLEAR     45  33  63 E9        30.11S
LEWISTOWN      CLEAR     41  37  86 SE7       30.14S
GREAT FALLS    CLOUDY    48  44  86 SW3       30.11S
CUT BANK       CLEAR     47  33  58 CALM      30.11S
HELENA         CLEAR     49  41  74 CALM      30.11S
BUTTE          PTCLDY    38  34  85 SE5       30.18S
BOZEMAN        CLEAR     44  38  79 E6        30.14S

WESTERN MONTANA


CITY           SKY/WX    TMP DP  RH WIND       PRES   REMARKS
MISSOULA       CLEAR     49  42  77 CALM      30.08R
KALISPELL      NOT AVBL

NORTH DAKOTA


CITY           SKY/WX    TMP DP  RH WIND       PRES   REMARKS
WILLISTON      CLEAR     39  33  79 NE6       30.14R
DICKINSON      CLEAR     36  29  75 W8        30.08R
MINOT          CLEAR     45  40  82 W13       30.06R
BISMARCK       CLEAR     42  38  85 W8        30.08R

SOUTHERN SASKATCHEWAN


CITY           SKY/WX    TMP DP  RH WIND       PRES   REMARKS
REGINA         PTCLDY    37  34  87 NW6       30.17R
MOOSE JAW      CLEAR     36  27  69 NW5       30.19R
ESTEVAN        PTCLDY    39  36  87 NW12      30.12R
SWIFT CURRENT  CLEAR     37  28  70 SE7       30.17R




USA.gov is the U.S. government's official web portal to all federal, state and local government web resources and services.